GW3010 Weather Reports


time (UTC)temp
C
wind
direction
speed
KPH
gust
KPH
rain 1hr
cm
rain 24hr
cm
rain mn
cm
humidity
%
barometer
mb
20260503213249 17 205 1.6 4.8 0.00 0.00 0.00 70 1013.0
20260503212746 18 353 3.2 4.8 0.00 0.00 0.00 69 1013.1
20260503212244 18 190 1.6 3.2 0.00 0.00 0.00 69 1013.2
20260503211741 18 252 4.8 9.7 0.00 0.00 0.00 68 1013.1
20260503211238 18 94 1.6 3.2 0.00 0.00 0.00 68 1012.9
20260503210733 18 197 3.2 4.8 0.00 0.00 0.00 68 1013.1
20260503210231 18 198 1.6 3.2 0.00 0.00 0.00 69 1012.9
20260503205726 18 210 4.8 11.3 0.00 0.00 0.00 68 1013.0
20260503205222 18 216 3.2 11.3 0.00 0.00 0.00 68 1013.0
20260503204719 18 132 1.6 3.2 0.00 0.00 0.00 69 1013.0
20260503204217 18 255 4.8 6.4 0.00 0.00 0.00 67 1013.0
20260503203714 18 183 0.0 3.2 0.00 0.00 0.00 70 1012.7
20260503203211 18 359 4.8 11.3 0.00 0.00 0.00 69 1013.0
20260503202708 18 193 4.8 9.7 0.00 0.00 0.00 67 1013.2
20260503202206 17 219 1.6 1.6 0.00 0.00 0.00 69 1013.1
20260503201704 17 179 0.0 1.6 0.00 0.00 0.00 70 1013.2
20260503201201 17 222 1.6 3.2 0.00 0.00 0.00 68 1013.2
20260503200657 17 234 1.6 1.6 0.00 0.00 0.00 70 1013.2
20260503200153 17 214 0.0 1.6 0.00 0.00 0.00 71 1013.3
20260503195645 17 214 0.0 1.6 0.00 0.00 0.00 71 1013.2
20260503195142 17 203 1.6 1.6 0.00 0.00 0.00 70 1013.2
20260503194639 17 242 1.6 3.2 0.00 0.00 0.00 70 1013.2
20260503194134 17 242 1.6 3.2 0.00 0.00 0.00 70 1013.6
20260503193631 18 146 0.0 1.6 0.00 0.00 0.00 71 1013.3
20260503193126 17 172 0.0 4.8 0.00 0.00 0.00 72 1013.2
20260503192622 17 221 3.2 6.4 0.00 0.00 0.00 71 1013.4
20260503192118 17 242 3.2 6.4 0.00 0.00 0.00 72 1013.4
20260503191615 17 104 3.2 3.2 0.00 0.00 0.00 72 1013.2
20260503191112 17 162 4.8 6.4 0.00 0.00 0.00 72 1013.2
20260503190609 17 158 3.2 12.9 0.00 0.00 0.00 71 1013.5
20260503190106 18 294 1.6 4.8 0.00 0.00 0.00 70 1013.3
20260503185603 18 262 3.2 4.8 0.00 0.00 0.00 68 1013.2
20260503185103 18 292 1.6 6.4 0.00 0.00 0.00 70 1013.1
20260503184558 18 169 0.0 6.4 0.00 0.00 0.00 68 1013.3
20260503184055 18 156 1.6 9.7 0.00 0.00 0.00 68 1013.2
20260503183552 18 186 1.6 6.4 0.00 0.00 0.00 70 1013.3
20260503183049 18 189 1.6 3.2 0.00 0.00 0.00 70 1013.1
20260503182547 18 133 1.6 3.2 0.00 0.00 0.00 70 1013.5
20260503182045 18 196 3.2 4.8 0.00 0.00 0.00 72 1013.1
20260503181542 17 180 1.6 4.8 0.00 0.00 0.00 73 1013.3
20260503181038 17 310 1.6 3.2 0.00 0.00 0.00 74 1013.3
20260503180535 17 127 1.6 4.8 0.00 0.00 0.00 73 1013.3
20260503180032 17 268 3.2 4.8 0.00 0.00 0.00 74 1013.1
20260503175530 17 204 1.6 4.8 0.00 0.00 0.00 73 1013.1
20260503175027 17 314 3.2 4.8 0.00 0.00 0.00 72 1013.2
20260503174524 16 233 3.2 6.4 0.00 0.00 0.00 73 1012.9
20260503174020 16 330 3.2 6.4 0.00 0.00 0.00 73 1013.0
20260503173515 16 246 1.6 4.8 0.00 0.00 0.00 74 1013.1
20260503173012 16 149 1.6 3.2 0.00 0.00 0.00 75 1013.1
20260503172510 16 153 1.6 6.4 0.00 0.00 0.00 75 1013.3
20260503172006 15 149 1.6 3.2 0.00 0.00 0.00 76 1013.2
20260503171503 15 153 1.6 3.2 0.00 0.00 0.00 76 1013.3
20260503171001 15 146 0.0 3.2 0.00 0.00 0.00 78 1013.2
20260503170457 15 147 0.0 3.2 0.00 0.00 0.00 78 1013.3
20260503150849 13 145 0.0 0.0 0.00 0.00 0.00 86 1012.6
20260503150345 12 145 0.0 1.6 0.00 0.00 0.00 87 1012.6
20260503140309 12 147 0.0 0.0 0.00 0.00 0.00 89 1011.7
20260503131233 11 148 0.0 0.0 0.00 0.00 0.00 89 1011.2
20260503130731 11 146 0.0 1.6 0.00 0.00 0.00 89 1011.2
20260503130228 11 146 0.0 1.6 0.00 0.00 0.00 89 1011.4
20260503120154 11 147 0.0 1.6 0.00 0.00 0.00 90 1011.2
20260503110621 11 145 0.0 0.0 0.00 0.00 0.00 90 1011.4
20260503110118 11 146 0.0 1.6 0.00 0.00 0.00 90 1011.2
20260503090502 11 191 0.0 4.8 0.00 0.00 0.00 89 1011.5
20260503081422 11 172 0.0 0.0 0.00 0.00 0.00 90 1012.1
20260503080919 11 179 0.0 1.6 0.00 0.00 0.00 90 1012.2
20260503080410 11 176 0.0 1.6 0.00 0.00 0.00 90 1012.2
20260503072847 11 176 1.6 1.6 0.00 0.00 0.00 90 1012.2
20260503072344 12 168 0.0 1.6 0.00 0.00 0.00 90 1012.0
20260503071840 11 177 0.0 1.6 0.00 0.00 0.00 90 1012.2
20260503071337 12 169 1.6 4.8 0.00 0.00 0.00 90 1012.2
20260503070833 12 218 3.2 3.2 0.00 0.00 0.00 90 1012.1
20260503070332 12 199 0.0 1.6 0.00 0.00 0.00 90 1012.1
20260503060256 12 181 0.0 4.8 0.00 0.00 0.00 88 1012.2
20260503054744 12 192 0.0 1.6 0.00 0.00 0.00 88 1012.2
20260503054240 12 182 1.6 3.2 0.00 0.00 0.00 88 1012.3
20260503053738 12 203 1.6 4.8 0.00 0.00 0.00 88 1012.6
20260503053237 12 178 0.0 3.2 0.00 0.00 0.00 88 1012.4
20260503052733 12 179 1.6 4.8 0.00 0.00 0.00 89 1012.4
20260503052230 12 172 0.0 4.8 0.00 0.00 0.00 89 1012.3
20260503051724 12 235 1.6 4.8 0.00 0.00 0.00 88 1012.5
20260503051223 12 193 1.6 6.4 0.00 0.00 0.00 88 1012.4
20260503050719 12 175 0.0 4.8 0.00 0.00 0.00 88 1012.5
20260503050215 12 279 6.4 9.7 0.00 0.00 0.00 88 1012.6
20260503045713 12 185 1.6 3.2 0.00 0.00 0.00 88 1012.4
20260503045210 12 173 1.6 3.2 0.00 0.00 0.00 88 1012.4
20260503044707 12 190 0.0 1.6 0.00 0.00 0.00 88 1012.5
20260503044204 12 162 1.6 11.3 0.00 0.00 0.00 88 1012.5
20260503043701 12 204 1.6 6.4 0.00 0.00 0.00 88 1012.4
20260503043158 12 205 4.8 6.4 0.00 0.00 0.00 88 1012.2
20260503042654 12 239 1.6 4.8 0.00 0.00 0.00 88 1012.4
20260503042151 12 133 1.6 4.8 0.00 0.00 0.00 88 1012.5
20260503041647 12 231 3.2 9.7 0.00 0.00 0.00 88 1012.3
20260503041145 12 189 1.6 4.8 0.00 0.00 0.00 88 1012.4
20260503040642 12 185 1.6 9.7 0.00 0.00 0.00 88 1012.3
20260503040140 12 201 3.2 6.4 0.00 0.00 0.00 88 1012.5
20260503035636 12 193 1.6 3.2 0.00 0.00 0.00 88 1012.2
20260503035134 12 206 3.2 9.7 0.00 0.00 0.00 88 1012.1
20260503034631 12 168 0.0 6.4 0.00 0.00 0.00 88 1012.3
20260503034128 12 299 3.2 4.8 0.00 0.00 0.00 89 1012.3
20260503033625 12 213 1.6 6.4 0.00 0.00 0.00 89 1011.9
20260503033122 12 210 1.6 3.2 0.00 0.00 0.00 89 1012.2
20260503032621 12 153 3.2 4.8 0.00 0.00 0.00 88 1011.8
20260503032119 12 166 1.6 6.4 0.00 0.00 0.00 88 1011.9
20260503031616 12 211 3.2 4.8 0.00 0.00 0.00 88 1011.8
20260503031114 12 211 1.6 3.2 0.00 0.00 0.00 88 1011.6
20260503030609 12 200 3.2 6.4 0.00 0.00 0.00 88 1011.6
20260503030106 12 177 0.0 1.6 0.00 0.00 0.00 88 1011.4
20260503025603 12 175 0.0 3.2 0.00 0.00 0.00 88 1011.4
20260503025101 12 174 3.2 4.8 0.00 0.00 0.00 88 1011.4
20260503024557 12 283 3.2 3.2 0.00 0.00 0.00 87 1011.5
20260503024054 12 184 1.6 3.2 0.00 0.00 0.00 87 1011.5
20260503023551 12 310 3.2 6.4 0.00 0.00 0.00 87 1011.5
20260503023048 12 209 1.6 11.3 0.00 0.00 0.00 87 1011.5
20260503022544 12 160 1.6 6.4 0.00 0.00 0.00 86 1011.5
20260503022039 12 164 0.0 3.2 0.00 0.00 0.00 86 1011.3
20260503021536 12 174 1.6 3.2 0.00 0.00 0.00 86 1011.4
20260503021033 12 148 0.0 4.8 0.00 0.00 0.00 85 1011.5
20260503020530 13 211 1.6 3.2 0.00 0.00 0.00 84 1011.6
20260503020027 13 212 3.2 4.8 0.00 0.00 0.00 84 1011.6
20260503015524 13 237 1.6 4.8 0.00 0.00 0.00 84 1011.6
20260503015021 13 240 4.8 4.8 0.00 0.00 0.00 84 1011.7
20260503014517 13 323 3.2 4.8 0.00 0.00 0.00 84 1011.4
20260503014015 13 197 1.6 3.2 0.00 0.00 0.00 84 1011.7
20260503013512 13 176 3.2 4.8 0.00 0.00 0.00 83 1011.9
20260503013010 13 179 0.0 3.2 0.00 0.00 0.00 83 1011.7
20260503012507 13 194 1.6 4.8 0.00 0.00 0.00 83 1011.6
20260503012003 13 197 1.6 4.8 0.00 0.00 0.00 83 1011.9
20260503011500 13 208 1.6 3.2 0.00 0.00 0.00 83 1011.8
20260503010957 13 253 3.2 6.4 0.00 0.00 0.00 83 1012.0
20260503010453 13 181 1.6 9.7 0.00 0.00 0.00 83 1011.8
20260503005951 13 244 1.6 6.4 0.00 0.00 0.00 82 1011.7
20260503005448 14 195 1.6 6.4 0.00 0.00 0.00 81 1012.1
20260503004944 14 174 0.0 3.2 0.00 0.00 0.00 81 1011.7
20260503004441 14 182 3.2 3.2 0.00 0.00 0.00 81 1011.9
20260503003939 14 164 1.6 4.8 0.00 0.00 0.00 81 1011.9
20260503003436 14 200 3.2 11.3 0.00 0.00 0.00 81 1011.9
20260503002933 15 183 1.6 1.6 0.00 0.00 0.00 80 1011.9
20260503002430 15 174 1.6 3.2 0.00 0.00 0.00 80 1012.0
20260503001926 15 209 3.2 4.8 0.00 0.00 0.00 80 1012.0
20260503001423 15 22 3.2 6.4 0.00 0.00 0.00 80 1012.1
20260503000921 15 201 3.2 4.8 0.00 0.00 0.00 79 1012.1
20260503000417 15 209 1.6 3.2 0.00 0.00 0.00 80 1012.2
20260502235914 15 347 6.4 9.7 0.00 0.00 0.00 79 1012.3
20260502235411 15 213 1.6 3.2 0.00 0.00 0.00 79 1012.0
20260502234909 15 223 1.6 4.8 0.00 0.00 0.00 79 1012.1
20260502234405 15 160 0.0 4.8 0.00 0.00 0.00 79 1011.9
20260502233902 15 233 1.6 4.8 0.00 0.00 0.00 80 1012.1
20260502233358 15 205 4.8 6.4 0.00 0.00 0.00 80 1012.2
20260502232855 15 205 3.2 4.8 0.00 0.00 0.00 80 1012.4
20260502232351 15 230 3.2 6.4 0.00 0.00 0.00 79 1012.2
20260502231848 16 200 3.2 4.8 0.00 0.00 0.00 78 1012.4
20260502231346 15 180 0.0 6.4 0.00 0.00 0.00 78 1012.5
20260502230844 16 226 1.6 9.7 0.00 0.00 0.00 77 1012.7
20260502230341 16 179 1.6 3.2 0.00 0.00 0.00 77 1012.6
20260502225838 16 217 3.2 4.8 0.00 0.00 0.00 78 1012.7
20260502225334 16 297 3.2 6.4 0.00 0.00 0.00 78 1012.8
20260502224832 16 188 1.6 6.4 0.00 0.00 0.00 77 1012.9
20260502224328 16 192 1.6 3.2 0.00 0.00 0.00 77 1012.7
20260502223825 16 206 3.2 6.4 0.00 0.00 0.00 76 1013.0
20260502223323 15 182 3.2 4.8 0.00 0.00 0.00 77 1013.0
20260502222820 15 244 3.2 6.4 0.00 0.00 0.00 77 1013.1
20260502222318 15 185 1.6 6.4 0.00 0.00 0.00 77 1013.3
20260502221814 15 182 3.2 3.2 0.00 0.00 0.00 77 1013.4
20260502221310 15 186 1.6 3.2 0.00 0.00 0.00 78 1013.2
20260502220808 15 180 3.2 4.8 0.00 0.00 0.00 78 1013.4
20260502220303 15 187 0.0 3.2 0.00 0.00 0.00 79 1013.4
20260502215800 15 203 3.2 4.8 0.00 0.00 0.00 79 1013.4
20260502215257 15 201 1.6 4.8 0.00 0.00 0.00 78 1013.7
20260502214754 15 199 3.2 3.2 0.00 0.00 0.00 77 1013.5
20260502214251 15 195 1.6 3.2 0.00 0.00 0.00 78 1013.5
20260502213748 15 238 3.2 6.4 0.00 0.00 0.00 77 1013.8